Location: Newark
(34.5992°S, 58.3747°W)
Time: 17:12:49
(UTC+00:00)

STARLINK 1065 - Pass Details

Date: 10 December 2019
Orbit: 548 x 551 km, 53.0° (Epoch: 20 January)

Event Time Altitude Azimuth Distance (km) Brightness Sun altitude
Rises 23:21:04 0° 244° (WSW) 2,741 9.8 -4.8°
Reaches altitude 10° 23:23:59 10° 265° (W) 1,836 7.5 -5.3°
Maximum altitude 23:26:37 16° 304° (NW) 1,466 6.1 -5.7°
Drops below altitude 10° 23:29:14 10° 343° (NNW) 1,820 6.1 -6.2°
Enters shadow 23:32:50 -2° 8° (N) 2,959 6.9 -6.8°
